COOK73 ZBLA-RJOC

Flight info

Callsign COOK73
Flight time N/A
Altitude 27000
Route TEP09D TEPOD B451 UGABI W39 YNJ R224 VASRO/K0815F270 M825 KANSU/N0453F270 B332 IGRAS Y332 MIHOU
Aircraft C25C/M-SDE2E3FGHRWXY/LB1

Departure

Time 2026-04-27 21:49
Airport Hulunbuir Hailar Airport (ZBLA)

Arrival

Time N/A
Airport Izumo Enmusubi Airport (RJOC)
Time Latitude Longitude Altitude Speed Heading
2026-04-27 21:30 49.20939 119.81541 2161 ft 0 kts 354°
2026-04-27 21:38 49.20950 119.81539 2162 ft 2 kts 354°
2026-04-27 21:38 49.20979 119.81555 2161 ft 7 kts 48°
2026-04-27 21:39 49.20989 119.81629 2161 ft 7 kts 98°
2026-04-27 21:39 49.20956 119.81668 2159 ft 6 kts 172°
2026-04-27 21:39 49.20914 119.81673 2161 ft 6 kts 185°
2026-04-27 21:39 49.20869 119.81666 2159 ft 7 kts 174°
2026-04-27 21:40 49.20822 119.81674 2159 ft 7 kts 173°
2026-04-27 21:40 49.20773 119.81683 2161 ft 7 kts 173°
2026-04-27 21:40 49.20725 119.81691 2157 ft 7 kts 173°
2026-04-27 21:40 49.20685 119.81658 2159 ft 8 kts 250°
2026-04-27 21:41 49.20687 119.81581 2160 ft 7 kts 297°
2026-04-27 21:41 49.20681 119.81557 2160 ft 1 kts 148°
2026-04-27 21:41 49.20679 119.81560 2160 ft 1 kts 134°
2026-04-27 21:41 49.20678 119.81601 2161 ft 9 kts 84°
2026-04-27 21:42 49.20662 119.81700 2156 ft 10 kts 162°
2026-04-27 21:42 49.20591 119.81711 2160 ft 10 kts 173°
2026-04-27 21:42 49.20540 119.81775 2157 ft 10 kts 107°
2026-04-27 21:42 49.20539 119.81878 2159 ft 9 kts 84°
2026-04-27 21:43 49.20545 119.81971 2160 ft 8 kts 84°
2026-04-27 21:43 49.20551 119.82059 2160 ft 9 kts 83°
2026-04-27 21:43 49.20558 119.82153 2159 ft 9 kts 83°
2026-04-27 21:43 49.20566 119.82255 2157 ft 10 kts 83°
2026-04-27 21:44 49.20573 119.82354 2160 ft 9 kts 83°
2026-04-27 21:44 49.20579 119.82441 2158 ft 8 kts 83°
2026-04-27 21:44 49.20585 119.82525 2162 ft 9 kts 84°
2026-04-27 21:44 49.20593 119.82629 2158 ft 11 kts 84°
2026-04-27 21:45 49.20602 119.82760 2160 ft 13 kts 84°
2026-04-27 21:45 49.20611 119.82905 2161 ft 14 kts 84°
2026-04-27 21:45 49.20621 119.83058 2157 ft 15 kts 83°
2026-04-27 21:45 49.20634 119.83232 2160 ft 17 kts 83°
2026-04-27 21:46 49.20647 119.83421 2161 ft 18 kts 83°
2026-04-27 21:46 49.20662 119.83618 2160 ft 19 kts 84°
2026-04-27 21:46 49.20676 119.83825 2161 ft 20 kts 84°
2026-04-27 21:46 49.20691 119.84035 2160 ft 19 kts 84°
2026-04-27 21:47 49.20705 119.84231 2161 ft 18 kts 83°
2026-04-27 21:47 49.20719 119.84418 2159 ft 18 kts 83°
2026-04-27 21:47 49.20729 119.84546 2159 ft 8 kts 74°
2026-04-27 21:47 49.20758 119.84616 2159 ft 7 kts 54°
2026-04-27 21:48 49.20771 119.84683 2157 ft 6 kts 111°
2026-04-27 21:48 49.20743 119.84704 2158 ft 4 kts 208°
2026-04-27 21:48 49.20736 119.84685 2159 ft 0 kts 255°
2026-04-27 21:49 49.20725 119.84545 2159 ft 44 kts 264°
2026-04-27 21:49 49.20656 119.83617 2224 ft 120 kts 262°
2026-04-27 21:49 49.20537 119.82457 3093 ft 119 kts 267°
2026-04-27 21:49 49.20486 119.80934 3438 ft 164 kts 269°
2026-04-27 21:50 49.20354 119.79038 4024 ft 194 kts 268°
2026-04-27 21:50 49.20588 119.76989 4912 ft 198 kts 300°
2026-04-27 21:50 49.21454 119.75404 6064 ft 196 kts 328°
2026-04-27 21:50 49.22728 119.74748 7139 ft 200 kts 355°
2026-04-27 21:51 49.24109 119.75250 8235 ft 208 kts 26°
2026-04-27 21:51 49.25107 119.76852 9317 ft 220 kts 58°
2026-04-27 21:51 49.25356 119.79194 10388 ft 233 kts 95°
2026-04-27 21:51 49.24603 119.81406 11375 ft 243 kts 135°
2026-04-27 21:52 49.23076 119.82500 12340 ft 249 kts 175°
2026-04-27 21:52 49.21327 119.82584 13255 ft 255 kts 171°
2026-04-27 21:52 49.19755 119.83797 14177 ft 257 kts 136°
2026-04-27 21:52 49.18626 119.85907 14989 ft 258 kts 123°
2026-04-27 21:53 49.17597 119.88168 15825 ft 260 kts 120°
2026-04-27 21:53 49.16585 119.90485 16670 ft 264 kts 120°
2026-04-27 21:53 49.15555 119.92786 17526 ft 267 kts 121°
2026-04-27 21:53 49.14486 119.95133 18398 ft 271 kts 121°
2026-04-27 21:54 49.13406 119.97518 19188 ft 275 kts 121°
2026-04-27 21:54 49.12317 119.99928 19993 ft 277 kts 120°
2026-04-27 21:54 49.11212 120.02364 20841 ft 281 kts 120°
2026-04-27 21:54 49.10097 120.04828 21698 ft 284 kts 119°
2026-04-27 21:55 49.08965 120.07320 22538 ft 287 kts 118°
2026-04-27 21:55 49.07819 120.09843 23375 ft 291 kts 118°
2026-04-27 21:55 49.06658 120.12398 24112 ft 295 kts 118°
2026-04-27 21:55 49.05487 120.14969 24801 ft 296 kts 117°
2026-04-27 21:56 49.04307 120.17558 25480 ft 298 kts 116°
2026-04-27 21:56 49.01930 120.22768 26818 ft 301 kts 115°
2026-04-27 21:56 49.00722 120.25421 27215 ft 312 kts 115°
2026-04-27 21:57 48.99447 120.28237 27244 ft 334 kts 116°
2026-04-27 21:57 48.98074 120.31235 27241 ft 355 kts 116°
2026-04-27 21:57 48.96617 120.34396 27243 ft 374 kts 117°
2026-04-27 21:57 48.95115 120.37667 27245 ft 390 kts 117°
2026-04-27 21:58 48.93519 120.41133 27240 ft 405 kts 117°
2026-04-27 21:58 48.91883 120.44691 27236 ft 413 kts 118°
2026-04-27 21:58 48.90221 120.48278 27236 ft 416 kts 118°
2026-04-27 21:58 48.88552 120.51892 27235 ft 419 kts 118°
2026-04-27 21:59 48.86878 120.55527 27232 ft 421 kts 118°
2026-04-27 21:59 48.85191 120.59173 27230 ft 422 kts 118°
2026-04-27 21:59 48.83500 120.62825 27232 ft 423 kts 118°
2026-04-27 21:59 48.81803 120.66474 27228 ft 424 kts 118°
2026-04-27 22:00 48.80126 120.70085 27229 ft 424 kts 118°
2026-04-27 22:00 48.78423 120.73750 27228 ft 425 kts 118°
2026-04-27 22:00 48.76719 120.77410 27231 ft 425 kts 118°
2026-04-27 22:00 48.75010 120.81066 27229 ft 425 kts 118°
2026-04-27 22:01 48.73302 120.84730 27229 ft 425 kts 118°
2026-04-27 22:01 48.71589 120.88393 27230 ft 426 kts 118°
2026-04-27 22:01 48.69874 120.92050 27226 ft 426 kts 118°
2026-04-27 22:01 48.68161 120.95704 27226 ft 426 kts 118°
2026-04-27 22:02 48.66444 120.99358 27226 ft 426 kts 118°
2026-04-27 22:02 48.64729 121.03012 27225 ft 426 kts 119°
2026-04-27 22:02 48.63007 121.06661 27227 ft 426 kts 119°
2026-04-27 22:02 48.61288 121.10313 27225 ft 426 kts 119°
2026-04-27 22:03 48.59561 121.13964 27227 ft 427 kts 119°
2026-04-27 22:03 48.57839 121.17612 27222 ft 426 kts 119°
2026-04-27 22:03 48.56115 121.21252 27227 ft 427 kts 119°
2026-04-27 22:03 48.54387 121.24892 27228 ft 427 kts 119°
2026-04-27 22:04 48.52662 121.28534 27221 ft 427 kts 119°
2026-04-27 22:04 48.50931 121.32170 27222 ft 427 kts 119°
2026-04-27 22:04 48.49203 121.35805 27218 ft 426 kts 119°
2026-04-27 22:04 48.47468 121.39436 27215 ft 426 kts 120°
2026-04-27 22:05 48.45762 121.43017 27222 ft 426 kts 120°
2026-04-27 22:05 48.44009 121.46688 27222 ft 427 kts 120°
2026-04-27 22:05 48.42295 121.50264 27211 ft 427 kts 120°
2026-04-27 22:05 48.40559 121.53886 27209 ft 426 kts 120°
2026-04-27 22:06 48.38823 121.57506 27209 ft 427 kts 120°
2026-04-27 22:06 48.37088 121.61119 27210 ft 426 kts 120°
2026-04-27 22:06 48.35349 121.64732 27206 ft 426 kts 120°
2026-04-27 22:06 48.33609 121.68345 27205 ft 427 kts 121°
2026-04-27 22:07 48.31863 121.71962 27204 ft 427 kts 121°
2026-04-27 22:07 48.30118 121.75573 27200 ft 427 kts 121°
2026-04-27 22:07 48.28374 121.79183 27200 ft 427 kts 121°
2026-04-27 22:07 48.26626 121.82793 27194 ft 428 kts 121°
2026-04-27 22:08 48.24874 121.86399 27198 ft 428 kts 121°
2026-04-27 22:08 48.23125 121.90006 27194 ft 428 kts 122°
2026-04-27 22:08 48.21367 121.93617 27190 ft 428 kts 122°
2026-04-27 22:08 48.19610 121.97227 27191 ft 429 kts 122°
2026-04-27 22:09 48.17852 122.00836 27192 ft 429 kts 122°
2026-04-27 22:09 48.16090 122.04440 27184 ft 429 kts 122°
2026-04-27 22:09 48.14330 122.08041 27188 ft 429 kts 122°
2026-04-27 22:09 48.12565 122.11651 27182 ft 429 kts 122°
2026-04-27 22:10 48.10797 122.15255 27184 ft 430 kts 122°
2026-04-27 22:10 48.09629 122.17639 27180 ft 430 kts 122°
2026-04-27 22:10 48.07255 122.22468 27171 ft 430 kts 123°
2026-04-27 22:10 48.05502 122.26028 27167 ft 431 kts 123°
2026-04-27 22:11 48.03726 122.29637 27170 ft 431 kts 123°
2026-04-27 22:11 48.01942 122.33247 27165 ft 431 kts 123°
2026-04-27 22:11 48.00165 122.36846 27162 ft 431 kts 123°
2026-04-27 22:11 47.98385 122.40445 27161 ft 431 kts 123°
2026-04-27 22:12 47.96600 122.44045 27155 ft 431 kts 123°
2026-04-27 22:12 47.94818 122.47642 27159 ft 431 kts 123°
2026-04-27 22:12 47.93032 122.51235 27153 ft 431 kts 123°
2026-04-27 22:12 47.91245 122.54829 27151 ft 432 kts 123°
2026-04-27 22:13 47.89457 122.58419 27149 ft 432 kts 123°
2026-04-27 22:13 47.87663 122.62015 27144 ft 432 kts 124°
2026-04-27 22:13 47.85869 122.65613 27144 ft 432 kts 124°
2026-04-27 22:13 47.84072 122.69200 27141 ft 433 kts 124°
2026-04-27 22:14 47.82274 122.72795 27138 ft 433 kts 124°
2026-04-27 22:14 47.80496 122.76347 27139 ft 433 kts 124°
2026-04-27 22:14 47.78794 122.80042 27132 ft 433 kts 122°
2026-04-27 22:14 47.77034 122.83670 27135 ft 433 kts 124°
2026-04-27 22:15 47.75250 122.87283 27131 ft 433 kts 123°
2026-04-27 22:15 47.73513 122.90945 27127 ft 434 kts 122°
2026-04-27 22:15 47.71790 122.94623 27127 ft 434 kts 122°
2026-04-27 22:15 47.70043 122.98282 27129 ft 434 kts 123°
2026-04-27 22:16 47.68281 123.01930 27125 ft 435 kts 123°
2026-04-27 22:16 47.66527 123.05589 27122 ft 435 kts 123°
2026-04-27 22:16 47.64774 123.09252 27121 ft 436 kts 123°
2026-04-27 22:16 47.63021 123.12912 27124 ft 436 kts 123°
2026-04-27 22:17 47.61254 123.16573 27120 ft 436 kts 123°
2026-04-27 22:17 47.59491 123.20235 27119 ft 437 kts 123°
2026-04-27 22:17 47.57722 123.23900 27118 ft 437 kts 124°
2026-04-27 22:17 47.55958 123.27561 27115 ft 437 kts 124°
2026-04-27 22:18 47.54182 123.31225 27113 ft 438 kts 124°
2026-04-27 22:18 47.52412 123.34884 27117 ft 438 kts 124°
2026-04-27 22:18 47.50634 123.38549 27114 ft 438 kts 124°
2026-04-27 22:18 47.49460 123.40969 27115 ft 438 kts 124°
2026-04-27 22:19 47.47678 123.44634 27115 ft 439 kts 124°
2026-04-27 22:19 47.45893 123.48303 27117 ft 439 kts 124°
2026-04-27 22:19 47.44109 123.51963 27111 ft 439 kts 124°
2026-04-27 22:19 47.42325 123.55617 27110 ft 439 kts 124°
2026-04-27 22:20 47.40539 123.59277 27111 ft 439 kts 124°
2026-04-27 22:20 47.38746 123.62936 27113 ft 439 kts 124°
2026-04-27 22:20 47.36955 123.66597 27106 ft 440 kts 124°
2026-04-27 22:20 47.35164 123.70247 27109 ft 440 kts 124°
2026-04-27 22:21 47.33392 123.73852 27109 ft 440 kts 124°
2026-04-27 22:21 47.31597 123.77505 27108 ft 440 kts 124°
2026-04-27 22:21 47.29798 123.81155 27110 ft 440 kts 124°
2026-04-27 22:21 47.27996 123.84810 27112 ft 440 kts 124°
2026-04-27 22:22 47.26195 123.88459 27111 ft 441 kts 124°
2026-04-27 22:22 47.24370 123.92077 27110 ft 441 kts 128°
2026-04-27 22:22 47.22243 123.95336 27103 ft 442 kts 134°
2026-04-27 22:22 47.20074 123.98539 27107 ft 442 kts 134°
2026-04-27 22:23 47.17913 124.01752 27107 ft 442 kts 134°
2026-04-27 22:23 47.15759 124.04978 27108 ft 442 kts 134°
2026-04-27 22:23 47.13599 124.08195 27108 ft 442 kts 134°
2026-04-27 22:23 47.11434 124.11397 27109 ft 442 kts 134°
2026-04-27 22:24 47.09268 124.14610 27110 ft 442 kts 134°
2026-04-27 22:24 47.07101 124.17820 27107 ft 442 kts 134°
2026-04-27 22:24 47.04938 124.21024 27107 ft 442 kts 134°
2026-04-27 22:24 47.02768 124.24225 27103 ft 443 kts 134°
2026-04-27 22:25 47.00600 124.27428 27102 ft 443 kts 134°
2026-04-27 22:25 46.98454 124.30587 27106 ft 443 kts 134°
2026-04-27 22:25 46.96285 124.33783 27105 ft 443 kts 134°
2026-04-27 22:25 46.94109 124.36982 27102 ft 443 kts 134°
2026-04-27 22:26 46.91934 124.40175 27100 ft 443 kts 134°
2026-04-27 22:26 46.89758 124.43367 27099 ft 443 kts 134°
2026-04-27 22:26 46.87578 124.46559 27099 ft 443 kts 134°
2026-04-27 22:26 46.85393 124.49759 27093 ft 443 kts 134°
2026-04-27 22:27 46.83214 124.52939 27101 ft 443 kts 134°
2026-04-27 22:27 46.81027 124.56135 27104 ft 443 kts 134°
2026-04-27 22:27 46.78846 124.59311 27097 ft 443 kts 134°
2026-04-27 22:27 46.76663 124.62492 27096 ft 444 kts 134°
2026-04-27 22:28 46.74477 124.65669 27097 ft 444 kts 134°
2026-04-27 22:28 46.72317 124.68808 27098 ft 444 kts 134°
2026-04-27 22:28 46.70129 124.71983 27101 ft 444 kts 134°
2026-04-27 22:28 46.67938 124.75156 27093 ft 444 kts 135°
2026-04-27 22:29 46.65746 124.78329 27095 ft 444 kts 134°
2026-04-27 22:29 46.63552 124.81499 27093 ft 445 kts 135°
2026-04-27 22:29 46.61358 124.84670 27100 ft 445 kts 135°
2026-04-27 22:29 46.59162 124.87833 27099 ft 445 kts 135°
2026-04-27 22:30 46.56961 124.91003 27098 ft 445 kts 135°
2026-04-27 22:30 46.54762 124.94170 27092 ft 445 kts 135°
2026-04-27 22:30 46.52559 124.97331 27092 ft 445 kts 135°
2026-04-27 22:30 46.50355 125.00498 27095 ft 445 kts 135°
2026-04-27 22:31 46.48149 125.03656 27099 ft 445 kts 135°
2026-04-27 22:31 46.45945 125.06815 27093 ft 445 kts 135°
2026-04-27 22:31 46.43737 125.09970 27089 ft 446 kts 135°
2026-04-27 22:31 46.41528 125.13123 27094 ft 446 kts 135°
2026-04-27 22:32 46.39322 125.16271 27094 ft 446 kts 135°
2026-04-27 22:32 46.37110 125.19424 27088 ft 446 kts 135°
2026-04-27 22:32 46.34899 125.22572 27091 ft 446 kts 135°
2026-04-27 22:32 46.32685 125.25714 27089 ft 446 kts 135°
2026-04-27 22:33 46.30472 125.28859 27088 ft 446 kts 135°
2026-04-27 22:33 46.28285 125.31956 27087 ft 446 kts 135°
2026-04-27 22:33 46.26072 125.35098 27090 ft 446 kts 135°
2026-04-27 22:33 46.23890 125.38280 27083 ft 446 kts 134°
2026-04-27 22:34 46.21722 125.41486 27083 ft 446 kts 134°
2026-04-27 22:34 46.19537 125.44670 27083 ft 446 kts 135°
2026-04-27 22:34 46.17339 125.47834 27088 ft 446 kts 135°
2026-04-27 22:34 46.15148 125.51008 27083 ft 446 kts 135°
2026-04-27 22:35 46.12958 125.54185 27079 ft 447 kts 135°
2026-04-27 22:35 46.10771 125.57358 27082 ft 447 kts 135°
2026-04-27 22:35 46.08573 125.60527 27085 ft 447 kts 135°
2026-04-27 22:35 46.06379 125.63691 27079 ft 447 kts 135°
2026-04-27 22:36 46.04183 125.66858 27080 ft 447 kts 135°
2026-04-27 22:36 46.01985 125.70023 27078 ft 447 kts 135°
2026-04-27 22:36 45.99786 125.73186 27075 ft 447 kts 135°
2026-04-27 22:36 45.97584 125.76344 27072 ft 447 kts 135°
2026-04-27 22:37 45.95384 125.79505 27073 ft 447 kts 135°
2026-04-27 22:37 45.93180 125.82659 27074 ft 447 kts 136°
2026-04-27 22:37 45.90975 125.85818 27073 ft 447 kts 136°
2026-04-27 22:37 45.88772 125.88965 27073 ft 447 kts 136°
2026-04-27 22:38 45.86566 125.92116 27073 ft 447 kts 136°
2026-04-27 22:38 45.84358 125.95264 27071 ft 448 kts 136°
2026-04-27 22:38 45.82146 125.98412 27073 ft 448 kts 136°
2026-04-27 22:38 45.79937 126.01560 27073 ft 448 kts 136°
2026-04-27 22:39 45.77724 126.04700 27071 ft 448 kts 136°
2026-04-27 22:39 45.75510 126.07846 27077 ft 448 kts 136°
2026-04-27 22:39 45.73295 126.10982 27080 ft 448 kts 136°
2026-04-27 22:39 45.71083 126.14115 27083 ft 448 kts 136°
2026-04-27 22:40 45.68898 126.17208 27087 ft 448 kts 136°
2026-04-27 22:40 45.66680 126.20338 27082 ft 448 kts 136°
2026-04-27 22:40 45.64462 126.23470 27081 ft 448 kts 136°
2026-04-27 22:40 45.62263 126.26634 27080 ft 449 kts 133°
2026-04-27 22:41 45.60191 126.29967 27082 ft 448 kts 134°
2026-04-27 22:41 45.58050 126.33213 27081 ft 448 kts 135°
2026-04-27 22:41 45.55919 126.36466 27083 ft 449 kts 134°
2026-04-27 22:41 45.53817 126.39766 27079 ft 449 kts 133°
2026-04-27 22:42 45.51716 126.43063 27076 ft 449 kts 134°
2026-04-27 22:42 45.49594 126.46344 27069 ft 449 kts 134°
2026-04-27 22:42 45.47474 126.49608 27073 ft 449 kts 134°
2026-04-27 22:42 45.45355 126.52888 27073 ft 449 kts 134°
2026-04-27 22:43 45.43240 126.56166 27066 ft 449 kts 134°
2026-04-27 22:43 45.41121 126.59439 27062 ft 450 kts 134°
2026-04-27 22:43 45.38997 126.62705 27060 ft 450 kts 134°
2026-04-27 22:43 45.36875 126.65975 27059 ft 450 kts 134°
2026-04-27 22:44 45.34747 126.69244 27057 ft 450 kts 134°
2026-04-27 22:44 45.32649 126.72472 27056 ft 450 kts 134°
2026-04-27 22:44 45.30520 126.75734 27061 ft 450 kts 134°
2026-04-27 22:44 45.28393 126.78994 27062 ft 450 kts 135°
2026-04-27 22:45 45.26259 126.82261 27064 ft 451 kts 134°
2026-04-27 22:45 45.24126 126.85521 27059 ft 451 kts 135°
2026-04-27 22:45 45.21992 126.88782 27057 ft 451 kts 135°
2026-04-27 22:45 45.19853 126.92040 27060 ft 451 kts 135°
2026-04-27 22:46 45.17718 126.95297 27059 ft 452 kts 135°
2026-04-27 22:46 45.15575 126.98553 27054 ft 452 kts 135°
2026-04-27 22:46 45.13432 127.01811 27060 ft 452 kts 135°
2026-04-27 22:46 45.11284 127.05072 27041 ft 452 kts 132°
2026-04-27 22:47 45.09149 127.08307 27043 ft 449 kts 133°
2026-04-27 22:47 45.07024 127.11528 27049 ft 446 kts 133°
2026-04-27 22:47 45.04936 127.14684 27053 ft 444 kts 133°
2026-04-27 22:47 45.02831 127.17865 27051 ft 442 kts 133°
2026-04-27 22:48 45.00749 127.21053 27057 ft 441 kts 131°
2026-04-27 22:48 44.98710 127.24285 27051 ft 439 kts 131°
2026-04-27 22:48 44.96668 127.27492 27050 ft 439 kts 131°
2026-04-27 22:48 44.94608 127.30665 27053 ft 438 kts 132°
2026-04-27 22:49 44.92553 127.33836 27053 ft 437 kts 132°
2026-04-27 22:49 44.90505 127.37013 27053 ft 437 kts 131°
2026-04-27 22:49 44.88460 127.40189 27053 ft 437 kts 132°
2026-04-27 22:49 44.86417 127.43348 27053 ft 436 kts 132°
2026-04-27 22:50 44.84369 127.46501 27054 ft 436 kts 132°
2026-04-27 22:50 44.82323 127.49658 27054 ft 436 kts 132°
2026-04-27 22:50 44.80279 127.52808 27056 ft 435 kts 132°
2026-04-27 22:50 44.78232 127.55958 27059 ft 435 kts 132°
2026-04-27 22:51 44.76186 127.59100 27059 ft 435 kts 132°
2026-04-27 22:51 44.74169 127.62201 27057 ft 435 kts 132°
2026-04-27 22:51 44.72122 127.65333 27054 ft 435 kts 132°
2026-04-27 22:51 44.70077 127.68471 27060 ft 435 kts 132°
2026-04-27 22:52 44.68029 127.71604 27061 ft 435 kts 132°
2026-04-27 22:52 44.65977 127.74738 27059 ft 435 kts 132°
2026-04-27 22:52 44.63927 127.77868 27059 ft 435 kts 132°
2026-04-27 22:52 44.61874 127.80997 27061 ft 435 kts 132°
2026-04-27 22:53 44.59825 127.84122 27062 ft 435 kts 132°
2026-04-27 22:53 44.57772 127.87241 27062 ft 435 kts 132°
2026-04-27 22:53 44.55724 127.90358 27060 ft 435 kts 132°
2026-04-27 22:53 44.53670 127.93473 27062 ft 435 kts 132°
2026-04-27 22:54 44.51616 127.96587 27062 ft 435 kts 132°
2026-04-27 22:54 44.49562 127.99698 27067 ft 435 kts 132°
2026-04-27 22:54 44.47507 128.02808 27066 ft 435 kts 132°
2026-04-27 22:54 44.45452 128.05917 27065 ft 435 kts 132°
2026-04-27 22:55 44.43389 128.09026 27065 ft 435 kts 132°
2026-04-27 22:55 44.41334 128.12125 27063 ft 435 kts 132°
2026-04-27 22:55 44.39277 128.15226 27056 ft 435 kts 132°
2026-04-27 22:55 44.37218 128.18324 27062 ft 435 kts 132°
2026-04-27 22:56 44.35158 128.21418 27059 ft 435 kts 132°
2026-04-27 22:56 44.33127 128.24469 27061 ft 435 kts 132°
2026-04-27 22:56 44.31064 128.27560 27063 ft 434 kts 132°
2026-04-27 22:56 44.29003 128.30652 27063 ft 435 kts 132°
2026-04-27 22:57 44.26940 128.33733 27058 ft 434 kts 132°
2026-04-27 22:57 44.24880 128.36815 27066 ft 434 kts 132°
2026-04-27 22:57 44.22818 128.39893 27062 ft 434 kts 132°
2026-04-27 22:57 44.20755 128.42970 27065 ft 434 kts 132°
2026-04-27 22:58 44.18694 128.46041 27058 ft 434 kts 132°
2026-04-27 22:58 44.16629 128.49110 27064 ft 434 kts 133°
2026-04-27 22:58 44.14566 128.52178 27065 ft 434 kts 132°
2026-04-27 22:58 44.12376 128.55067 27048 ft 435 kts 144°
2026-04-27 22:59 44.09733 128.57107 27052 ft 435 kts 152°
2026-04-27 22:59 44.07048 128.59040 27047 ft 435 kts 153°
2026-04-27 22:59 44.04339 128.60910 27056 ft 435 kts 153°
2026-04-27 22:59 44.01641 128.62807 27054 ft 435 kts 153°
2026-04-27 23:00 43.96267 128.66643 27059 ft 434 kts 153°
2026-04-27 23:00 43.93568 128.68543 27060 ft 434 kts 153°
2026-04-27 23:00 43.90875 128.70436 27060 ft 435 kts 153°
2026-04-27 23:01 43.88178 128.72342 27061 ft 434 kts 153°
2026-04-27 23:01 43.85486 128.74245 27058 ft 434 kts 153°
2026-04-27 23:01 43.82825 128.76111 27055 ft 434 kts 153°
2026-04-27 23:01 43.80128 128.78008 27056 ft 434 kts 153°
2026-04-27 23:02 43.77435 128.79904 27058 ft 434 kts 153°
2026-04-27 23:02 43.74737 128.81795 27058 ft 434 kts 153°
2026-04-27 23:02 43.72043 128.83686 27055 ft 434 kts 153°
2026-04-27 23:02 43.69354 128.85582 27056 ft 434 kts 152°
2026-04-27 23:03 43.66665 128.87478 27053 ft 434 kts 153°
2026-04-27 23:03 43.63976 128.89365 27051 ft 434 kts 153°
2026-04-27 23:03 43.61289 128.91249 27053 ft 434 kts 153°
2026-04-27 23:03 43.58600 128.93133 27052 ft 434 kts 153°
2026-04-27 23:04 43.55911 128.95016 27050 ft 433 kts 153°
2026-04-27 23:04 43.53224 128.96899 27047 ft 433 kts 153°
2026-04-27 23:04 43.50536 128.98778 27040 ft 433 kts 153°
2026-04-27 23:04 43.47850 129.00648 27044 ft 433 kts 153°
2026-04-27 23:05 43.45165 129.02524 27044 ft 433 kts 153°
2026-04-27 23:05 43.42477 129.04398 27052 ft 432 kts 153°
2026-04-27 23:05 43.39826 129.06242 27050 ft 432 kts 153°
2026-04-27 23:05 43.37216 129.08292 27043 ft 431 kts 150°
2026-04-27 23:06 43.34583 129.10260 27046 ft 431 kts 152°
2026-04-27 23:06 43.31933 129.12197 27044 ft 431 kts 151°
2026-04-27 23:06 43.29318 129.14197 27044 ft 430 kts 150°
2026-04-27 23:06 43.26709 129.16222 27040 ft 430 kts 150°